This is the latest recevied weather packets stored in our database for station/object IW3HBX-3. If no packets are shown the sender has not sent any weather packets the latest 10 day(s).
| Time | Temp. | Humidity | Pressure | Rain* | Wind** | Luminosity | Snow |
|---|---|---|---|---|---|---|---|
| 1777625736 | 17.78° C | 31% | 1028.9 hPa | 0 mm | - | 662 W/m² | - |
| 1777625436 | 17.78° C | 31% | 1029 hPa | 0 mm | - | 653 W/m² | - |
| 1777625136 | 17.78° C | 33% | 1028.9 hPa | 0 mm | - | 643 W/m² | - |
| 1777624837 | 17.22° C | 32% | 1029 hPa | 0 mm | - | 631 W/m² | - |
| 1777624537 | 16.67° C | 32% | 1028.9 hPa | 0 mm | - | 619 W/m² | - |
| 1777624237 | 16.67° C | 31% | 1029 hPa | 0 mm | - | 605 W/m² | - |
| 1777623937 | 16.11° C | 35% | 1028.9 hPa | 0 mm | - | 590 W/m² | - |
| 1777623338 | 16.11° C | 33% | 1028.9 hPa | 0 mm | - | 561 W/m² | - |
| 1777623038 | 16.11° C | 33% | 1028.9 hPa | 0 mm | - | 548 W/m² | - |
| 1777622738 | 16.67° C | 32% | 1028.8 hPa | 0 mm | - | 533 W/m² | - |
| 1777622439 | 16.67° C | 32% | 1028.9 hPa | 0 mm | - | 521 W/m² | - |
| 1777622139 | 15.56° C | 33% | 1029 hPa | 0 mm | - | 505 W/m² | - |
| 1777621839 | 15.56° C | 33% | 1029 hPa | 0 mm | - | 488 W/m² | - |
| 1777621539 | 15.56° C | 33% | 1029 hPa | 0 mm | - | 472 W/m² | - |
| 1777621240 | 15.56° C | 34% | 1028.8 hPa | 0 mm | - | 459 W/m² | - |
| 1777620940 | 16.11° C | 34% | 1028.9 hPa | 0 mm | - | 445 W/m² | - |
| 1777620640 | 15.56° C | 34% | 1028.9 hPa | 0 mm | - | 428 W/m² | - |
| 1777620340 | 15.56° C | 33% | 1028.8 hPa | 0 mm | - | 412 W/m² | - |
| 1777620040 | 15.56° C | 34% | 1028.8 hPa | 0 mm | - | 395 W/m² | - |
| 1777619741 | 15.56° C | 34% | 1028.9 hPa | 0 mm | - | 381 W/m² | - |
| 1777619441 | 15° C | 34% | 1028.8 hPa | 0 mm | - | 367 W/m² | - |
| 1777619141 | 15° C | 34% | 1028.9 hPa | 0 mm | - | 352 W/m² | - |
| 1777618842 | 15° C | 36% | 1028.8 hPa | 0 mm | - | 336 W/m² | - |
| 1777618542 | 15° C | 37% | 1028.8 hPa | 0 mm | - | 320 W/m² | - |
| 1777618242 | 15.56° C | 36% | 1028.7 hPa | 0 mm | - | 304 W/m² | - |
* Rain latest hour (hover to see other rain measurements)
** Current wind speed in m/s (hover to see current wind gust speed)